COSMOS 1081

Satellite information

Favourite Embed

Satellite Type and Status

PAYLOADIN ORBIT

Key statistics

Satellite COSMOS 1081 at a glance.

Uptime

17082

Days in orbit

Revolutions

≈ 12.6

Per day

Orbit

LEO

Low Earth Orbit

Inclination

74.0

Latest

Satellite identification and parameters

Extended collection of information and parameters for COSMOS 1081.

Object identification

Identified? True

Debris? False

Object name: COSMOS 1081

International designator: 1979-024A

Object number (NORAD): 11296

Object ID (CCSDS): 11296

Country: COMMONWEALTH OF INDEPENDENT STATES (CIS)

Current information (Y/N): Y

RCS size: MEDIUM

Orbital parameters

Period: 114.532 minutes

Inclination: 74.0341 deg

SMA: 7812.289 km

Apoapsis: 1465.023 km

Periapsis: 1403.285 km

RAAN: 266.2644 deg

Eccentricy: 0.00395133

Argument of periapsis: 339.48 deg

Mean anomaly: 77.7255 deg

Mean motion: 12.57289612 rev/day

Mean motion (dot): -0.00000013 rev/day2

B* drag term: 0.000022164174 1/REarth

Two-line elements (TLE)

Creation date: Dec. 20, 2025, 3:40 a.m.

Reference frame: TEME

Reference center: EARTH

Epoch: Dec. 19, 2025, 8:12 p.m. UTC

TLE line 0: 0 COSMOS 1081

TLE line 1: 1 11296U 79024A 25353.84227141 -.00000013 00000-0 22164-4 0 9992

TLE line 2: 2 11296 74.0341 266.2644 0039513 339.4800 77.7255 12.57289612146386

Live tracking on map

Real-time ground track for satellite COSMOS 1081.

In-orbit conjunctions

There are no conjunctions computed for COSMOS 1081, at the moment. Check back to stay up to date, as we update our databases every day.

Go to all conjunctions

Associated space launch

Military communications satellites

COSMOS 1081 was lifted into orbit during the mission ‘Kosmos-3M | Strela-1M 169-176’, on board a Kosmos-3M space rocket.

The launch took place on March 15, 1979, 2:58 a.m. from 132/2.

For more information about the launch, click the button.

Launch to space Kosmos-3M | Strela-1M 169-176
Kosmos-3M | Strela-1M 169-176

Agency: N/A

Status: Launch Successful

Launch date: March 15, 1979, 2:58 a.m. UTC

Rocket: Kosmos-3M

Launch pad: 132/2

Location: Plesetsk Cosmodrome, Russian Federation

...

Latest news about this satellite

There are no fresh news available about this satellite. Check back as we update our databases every day.


Newsletter sign-up

Weekly statistics, charts and insights to help you stay on top of the space industry.